BAW4566 LPPR-EGKK

Flight info

Callsign BAW4566
Flight time 1h 45m
Altitude 24000
Route TURON P600 ASDEB/N0449F380 DCT KORUL DCT FEJAC DCT JSY/N0419F340 DCT REVTU/N0377F280 UP88 ODREP/N0358F240 P88 VASUX
Aircraft A20N/M-SDE2E3FGHIRWXY/LB1

Departure

Time 2026-05-04 17:02
Airport Francisco de Sá Carneiro Airport (LPPR)

Arrival

Time 2026-05-04 18:48
Airport London Gatwick Airport (EGKK)
Time Latitude Longitude Altitude Speed Heading
2026-05-04 16:45 41.23683 -8.67257 257 ft 0 kts 83°
2026-05-04 16:51 41.23682 -8.67264 258 ft 3 kts 83°
2026-05-04 16:51 41.23690 -8.67328 258 ft 1 kts 171°
2026-05-04 16:54 41.23688 -8.67327 258 ft 1 kts 172°
2026-05-04 16:55 41.23525 -8.67380 262 ft 14 kts 193°
2026-05-04 16:55 41.23362 -8.67375 263 ft 9 kts 206°
2026-05-04 16:56 41.23336 -8.67427 265 ft 2 kts 254°
2026-05-04 16:56 41.23324 -8.67494 268 ft 7 kts 258°
2026-05-04 16:57 41.23314 -8.67561 272 ft 7 kts 258°
2026-05-04 16:57 41.23310 -8.67587 273 ft 0 kts 259°
2026-05-04 17:00 41.23331 -8.67733 277 ft 16 kts 335°
2026-05-04 17:01 41.23373 -8.67754 277 ft 0 kts 348°
2026-05-04 17:01 41.23761 -8.67862 257 ft 113 kts 348°
2026-05-04 17:02 41.25927 -8.68390 1753 ft 172 kts 346°
2026-05-04 17:02 41.28547 -8.69108 4050 ft 212 kts 343°
2026-05-04 17:03 41.30071 -8.69539 5081 ft 235 kts 345°
2026-05-04 17:03 41.31756 -8.69997 6078 ft 256 kts 345°
2026-05-04 17:03 41.35374 -8.70933 8653 ft 272 kts 345°
2026-05-04 17:04 41.39207 -8.71920 10892 ft 296 kts 346°
2026-05-04 17:04 41.43629 -8.72404 12461 ft 339 kts
2026-05-04 17:05 41.48392 -8.71270 14569 ft 356 kts
2026-05-04 17:05 41.53285 -8.70024 16609 ft 365 kts
2026-05-04 17:06 41.58351 -8.68735 18599 ft 375 kts
2026-05-04 17:06 41.60931 -8.68079 19467 ft 380 kts
2026-05-04 17:07 41.66198 -8.66731 21225 ft 390 kts
2026-05-04 17:07 41.67974 -8.66278 21779 ft 393 kts
2026-05-04 17:07 41.71597 -8.65354 22914 ft 400 kts
2026-05-04 17:07 41.74349 -8.64652 23462 ft 405 kts
2026-05-04 17:08 41.77117 -8.63943 23586 ft 405 kts
2026-05-04 17:08 41.82628 -8.62533 23799 ft 406 kts
2026-05-04 17:08 41.85406 -8.61821 23896 ft 406 kts
2026-05-04 17:09 41.87610 -8.61257 24005 ft 408 kts
2026-05-04 17:09 41.90365 -8.60559 23999 ft 409 kts
2026-05-04 17:09 41.93158 -8.59847 23999 ft 408 kts
2026-05-04 17:10 41.98744 -8.58415 24001 ft 408 kts
2026-05-04 17:10 42.07125 -8.56283 24020 ft 409 kts
2026-05-04 17:11 42.09957 -8.55850 24521 ft 412 kts
2026-05-04 17:11 42.12815 -8.55408 25223 ft 415 kts
2026-05-04 17:11 42.18627 -8.54479 26455 ft 425 kts
2026-05-04 17:12 42.21582 -8.54006 27056 ft 430 kts
2026-05-04 17:12 42.27603 -8.53044 28214 ft 439 kts
2026-05-04 17:13 42.36610 -8.50255 28964 ft 457 kts 20°
2026-05-04 17:14 42.48221 -8.43059 29560 ft 463 kts 20°
2026-05-04 17:14 42.54134 -8.39415 30538 ft 470 kts 20°
2026-05-04 17:15 42.57122 -8.37573 31015 ft 473 kts 20°
2026-05-04 17:15 42.63134 -8.33860 31692 ft 474 kts 20°
2026-05-04 17:16 42.69150 -8.30138 31894 ft 475 kts 20°
2026-05-04 17:16 42.78131 -8.24569 31999 ft 474 kts 21°
2026-05-04 17:17 42.81137 -8.22700 31999 ft 474 kts 21°
2026-05-04 17:18 42.93153 -8.15207 31997 ft 474 kts 21°
2026-05-04 17:19 43.05132 -8.07706 31991 ft 473 kts 21°
2026-05-04 17:20 43.17048 -8.00213 31989 ft 472 kts 21°
2026-05-04 17:20 43.26000 -7.94562 31978 ft 472 kts 21°
2026-05-04 17:21 43.37921 -7.87008 31979 ft 471 kts 22°
2026-05-04 17:22 43.43845 -7.83243 31966 ft 471 kts 22°
2026-05-04 17:23 43.55732 -7.75660 31957 ft 470 kts 22°
2026-05-04 17:24 43.64623 -7.69969 31949 ft 469 kts 22°
2026-05-04 17:25 43.75472 -7.62996 31941 ft 469 kts 22°
2026-05-04 17:26 43.87355 -7.55331 31937 ft 473 kts 23°
2026-05-04 17:27 44.02236 -7.45679 31939 ft 469 kts 24°
2026-05-04 17:28 44.14042 -7.37983 31937 ft 470 kts 24°
2026-05-04 17:29 44.31872 -7.26298 31926 ft 486 kts 24°
2026-05-04 17:31 44.47157 -7.16217 31926 ft 487 kts 24°
2026-05-04 17:32 44.62468 -7.06058 31923 ft 487 kts 24°
2026-05-04 17:33 44.74715 -6.97890 31923 ft 487 kts 24°
2026-05-04 17:34 44.86591 -6.88892 31917 ft 485 kts 36°
2026-05-04 17:35 45.00353 -6.74991 31919 ft 487 kts 35°
2026-05-04 17:36 45.05858 -6.69416 31910 ft 487 kts 36°
2026-05-04 17:36 45.11366 -6.63818 31915 ft 487 kts 36°
2026-05-04 17:37 45.16866 -6.58211 31910 ft 487 kts 36°
2026-05-04 17:37 45.22362 -6.52595 31912 ft 486 kts 36°
2026-05-04 17:38 45.27854 -6.46967 31912 ft 486 kts 36°
2026-05-04 17:38 45.33341 -6.41332 31912 ft 486 kts 36°
2026-05-04 17:39 45.41564 -6.32861 31912 ft 485 kts 36°
2026-05-04 17:39 45.47020 -6.27224 31914 ft 485 kts 36°
2026-05-04 17:40 45.52440 -6.21610 31915 ft 487 kts 37°
2026-05-04 17:40 45.57916 -6.15924 31915 ft 487 kts 37°
2026-05-04 17:41 45.63385 -6.10232 31911 ft 485 kts 37°
2026-05-04 17:41 45.68882 -6.04495 31912 ft 491 kts 37°
2026-05-04 17:42 45.73805 -5.99345 31912 ft 491 kts 37°
2026-05-04 17:42 45.79284 -5.93602 31912 ft 491 kts 37°
2026-05-04 17:43 45.84541 -5.88078 31911 ft 492 kts 37°
2026-05-04 17:43 45.90080 -5.82241 31912 ft 492 kts 37°
2026-05-04 17:44 45.95555 -5.76458 31912 ft 492 kts 37°
2026-05-04 17:44 46.00196 -5.71545 31911 ft 492 kts 37°
2026-05-04 17:45 46.05693 -5.65712 31914 ft 489 kts 38°
2026-05-04 17:45 46.11170 -5.59885 31912 ft 490 kts 38°
2026-05-04 17:46 46.16665 -5.54025 31912 ft 493 kts 38°
2026-05-04 17:46 46.22167 -5.48141 31912 ft 492 kts 38°
2026-05-04 17:47 46.27659 -5.42255 31912 ft 491 kts 38°
2026-05-04 17:47 46.33151 -5.36352 31912 ft 491 kts 38°
2026-05-04 17:48 46.38633 -5.30445 31915 ft 491 kts 38°
2026-05-04 17:48 46.44079 -5.24562 31915 ft 491 kts 38°
2026-05-04 17:49 46.49547 -5.18641 31912 ft 491 kts 38°
2026-05-04 17:49 46.55016 -5.12701 31912 ft 491 kts 38°
2026-05-04 17:50 46.60478 -5.06755 31909 ft 490 kts 39°
2026-05-04 17:50 46.65942 -5.00792 31909 ft 490 kts 39°
2026-05-04 17:51 46.71399 -4.94821 31909 ft 490 kts 39°
2026-05-04 17:51 46.76825 -4.88867 31909 ft 490 kts 39°
2026-05-04 17:52 46.81707 -4.83498 31906 ft 492 kts 39°
2026-05-04 17:52 46.87174 -4.77470 31908 ft 492 kts 39°
2026-05-04 17:53 46.92623 -4.71448 31912 ft 490 kts 39°
2026-05-04 17:53 46.98073 -4.65406 31912 ft 490 kts 39°
2026-05-04 17:54 47.03464 -4.59416 31909 ft 490 kts 39°
2026-05-04 17:54 47.08581 -4.53716 31909 ft 490 kts 39°
2026-05-04 17:55 47.13988 -4.47678 31909 ft 488 kts 39°
2026-05-04 17:55 47.19388 -4.41630 31909 ft 488 kts 39°
2026-05-04 17:56 47.24790 -4.35565 31909 ft 488 kts 39°
2026-05-04 17:56 47.30182 -4.29495 31909 ft 488 kts 39°
2026-05-04 17:57 47.35563 -4.23422 31912 ft 487 kts 39°
2026-05-04 17:57 47.40937 -4.17341 31915 ft 487 kts 39°
2026-05-04 17:58 47.46340 -4.11207 31913 ft 490 kts 39°
2026-05-04 17:58 47.51750 -4.05053 31914 ft 490 kts 39°
2026-05-04 17:59 47.57091 -3.98961 31911 ft 488 kts 39°
2026-05-04 18:00 47.64283 -3.90732 31910 ft 488 kts 39°
2026-05-04 18:00 47.69918 -3.84264 31905 ft 488 kts 39°
2026-05-04 18:01 47.75282 -3.78091 31889 ft 486 kts 40°
2026-05-04 18:01 47.80614 -3.71940 31903 ft 485 kts 40°
2026-05-04 18:02 47.88618 -3.62669 31907 ft 486 kts 40°
2026-05-04 18:02 47.93913 -3.56517 31899 ft 486 kts 40°
2026-05-04 18:03 47.99230 -3.50325 31900 ft 484 kts 40°
2026-05-04 18:03 48.04538 -3.44125 31889 ft 484 kts 40°
2026-05-04 18:04 48.09850 -3.37902 31892 ft 487 kts 41°
2026-05-04 18:05 48.17856 -3.28494 31901 ft 486 kts 41°
2026-05-04 18:05 48.23146 -3.22255 31900 ft 486 kts 41°
2026-05-04 18:06 48.31129 -3.12810 31903 ft 486 kts 41°
2026-05-04 18:06 48.36409 -3.06541 31906 ft 486 kts 41°
2026-05-04 18:07 48.41747 -3.00187 31894 ft 489 kts 41°
2026-05-04 18:07 48.47078 -2.93824 31909 ft 491 kts 41°
2026-05-04 18:08 48.52428 -2.87420 31918 ft 491 kts 41°
2026-05-04 18:08 48.56872 -2.82085 31917 ft 491 kts 41°
2026-05-04 18:09 48.67497 -2.69295 31916 ft 478 kts 41°
2026-05-04 18:10 48.69075 -2.67395 31915 ft 467 kts 42°
2026-05-04 18:10 48.71596 -2.64352 31918 ft 465 kts 42°
2026-05-04 18:10 48.76631 -2.58251 31916 ft 476 kts 42°
2026-05-04 18:11 48.81656 -2.52267 31911 ft 474 kts 41°
2026-05-04 18:11 48.86430 -2.46723 31915 ft 474 kts 41°
2026-05-04 18:12 48.89036 -2.43690 31633 ft 470 kts 41°
2026-05-04 18:12 48.91621 -2.40672 30927 ft 469 kts 41°
2026-05-04 18:12 48.94209 -2.37642 30034 ft 469 kts 42°
2026-05-04 18:12 48.96785 -2.34617 29179 ft 464 kts 42°
2026-05-04 18:13 48.99289 -2.31673 28423 ft 456 kts 42°
2026-05-04 18:13 49.01789 -2.28729 27656 ft 450 kts 42°
2026-05-04 18:13 49.06663 -2.22975 26405 ft 432 kts 41°
2026-05-04 18:14 49.09037 -2.20167 26276 ft 437 kts 41°
2026-05-04 18:14 49.11454 -2.17293 26167 ft 440 kts 41°
2026-05-04 18:14 49.13867 -2.14429 26059 ft 438 kts 41°
2026-05-04 18:15 49.18674 -2.08720 25916 ft 437 kts 41°
2026-05-04 18:15 49.23632 -2.03322 25912 ft 441 kts 32°
2026-05-04 18:15 49.26323 -2.01067 25911 ft 441 kts 32°
2026-05-04 18:16 49.29013 -1.98794 25906 ft 441 kts 32°
2026-05-04 18:16 49.31689 -1.96523 25909 ft 439 kts 32°
2026-05-04 18:16 49.34364 -1.94249 25910 ft 439 kts 32°
2026-05-04 18:17 49.39710 -1.89697 25908 ft 439 kts 32°
2026-05-04 18:17 49.42384 -1.87417 25910 ft 439 kts 32°
2026-05-04 18:17 49.47727 -1.82854 25913 ft 439 kts 32°
2026-05-04 18:18 49.50369 -1.80593 25912 ft 439 kts 32°
2026-05-04 18:18 49.53042 -1.78302 25901 ft 438 kts 32°
2026-05-04 18:18 49.55709 -1.76012 25909 ft 440 kts 32°
2026-05-04 18:18 49.58388 -1.73715 25909 ft 440 kts 31°
2026-05-04 18:19 49.64089 -1.70164 25918 ft 442 kts 21°
2026-05-04 18:19 49.66996 -1.68567 25925 ft 443 kts 21°
2026-05-04 18:19 49.69892 -1.66965 25913 ft 443 kts 22°
2026-05-04 18:20 49.72787 -1.65360 25924 ft 442 kts 22°
2026-05-04 18:20 49.75656 -1.63770 25920 ft 441 kts 22°
2026-05-04 18:20 49.78538 -1.62171 25916 ft 441 kts 22°
2026-05-04 18:20 49.81430 -1.60566 25926 ft 441 kts 22°
2026-05-04 18:21 49.84318 -1.58961 25925 ft 441 kts 22°
2026-05-04 18:21 49.87203 -1.57356 25920 ft 441 kts 22°
2026-05-04 18:21 49.90099 -1.55743 25912 ft 441 kts 22°
2026-05-04 18:21 49.92981 -1.54136 25912 ft 441 kts 22°
2026-05-04 18:22 49.95870 -1.52523 25911 ft 441 kts 22°
2026-05-04 18:22 49.98749 -1.50913 25917 ft 439 kts 22°
2026-05-04 18:22 50.01624 -1.49327 25710 ft 436 kts 21°
2026-05-04 18:22 50.04505 -1.47895 25185 ft 433 kts 19°
2026-05-04 18:23 50.07366 -1.46537 24546 ft 428 kts 19°
2026-05-04 18:23 50.10198 -1.45195 23866 ft 423 kts 19°
2026-05-04 18:23 50.13002 -1.43851 23130 ft 417 kts 19°
2026-05-04 18:23 50.15754 -1.42515 22408 ft 411 kts 19°
2026-05-04 18:24 50.18423 -1.41211 21699 ft 404 kts 19°
2026-05-04 18:24 50.21083 -1.39906 21003 ft 398 kts 19°
2026-05-04 18:24 50.23706 -1.38616 20304 ft 392 kts 19°
2026-05-04 18:24 50.26296 -1.37341 19619 ft 387 kts 19°
2026-05-04 18:25 50.28841 -1.36086 18958 ft 381 kts 19°
2026-05-04 18:25 50.31352 -1.34848 18301 ft 376 kts 19°
2026-05-04 18:25 50.33827 -1.33625 17552 ft 371 kts 19°
2026-05-04 18:25 50.36279 -1.32410 16789 ft 368 kts 19°
2026-05-04 18:26 50.38709 -1.31204 16055 ft 364 kts 19°
2026-05-04 18:26 50.41118 -1.30008 15342 ft 361 kts 18°
2026-05-04 18:26 50.43504 -1.28821 14612 ft 359 kts 18°
2026-05-04 18:26 50.45878 -1.27640 13930 ft 356 kts 18°
2026-05-04 18:27 50.48208 -1.26448 13535 ft 345 kts 21°
2026-05-04 18:27 50.50424 -1.24807 13423 ft 356 kts 30°
2026-05-04 18:27 50.52427 -1.22627 13290 ft 353 kts 40°
2026-05-04 18:27 50.54299 -1.20143 13188 ft 353 kts 40°
2026-05-04 18:28 50.56178 -1.17671 13074 ft 352 kts 40°
2026-05-04 18:28 50.58057 -1.15206 13001 ft 351 kts 40°
2026-05-04 18:28 50.59933 -1.12741 13000 ft 351 kts 40°
2026-05-04 18:28 50.61808 -1.10273 13000 ft 352 kts 40°
2026-05-04 18:29 50.63682 -1.07803 13000 ft 351 kts 40°
2026-05-04 18:29 50.65535 -1.05288 12999 ft 353 kts 44°
2026-05-04 18:29 50.67187 -1.02408 13001 ft 353 kts 51°
2026-05-04 18:29 50.68731 -0.99407 13000 ft 352 kts 51°
2026-05-04 18:30 50.71843 -0.93413 13004 ft 352 kts 51°
2026-05-04 18:30 50.73390 -0.90429 13006 ft 349 kts 51°
2026-05-04 18:30 50.74928 -0.87461 13006 ft 350 kts 51°
2026-05-04 18:31 50.76468 -0.84486 13003 ft 350 kts 51°
2026-05-04 18:31 50.78005 -0.81511 12995 ft 349 kts 51°
2026-05-04 18:31 50.79520 -0.78567 12919 ft 340 kts 52°
2026-05-04 18:31 50.80735 -0.75508 12801 ft 325 kts 64°
2026-05-04 18:32 50.81489 -0.72192 12661 ft 310 kts 77°
2026-05-04 18:32 50.81874 -0.68952 12398 ft 299 kts 80°
2026-05-04 18:32 50.82243 -0.65742 11934 ft 296 kts 80°
2026-05-04 18:32 50.82616 -0.62545 11444 ft 294 kts 80°
2026-05-04 18:33 50.82986 -0.59379 10994 ft 292 kts 80°
2026-05-04 18:33 50.83350 -0.56260 10740 ft 282 kts 80°
2026-05-04 18:33 50.83695 -0.53288 10623 ft 268 kts 80°
2026-05-04 18:33 50.84022 -0.50458 10524 ft 255 kts 80°
2026-05-04 18:34 50.84334 -0.47764 10421 ft 243 kts 80°
2026-05-04 18:34 50.84629 -0.45200 10306 ft 233 kts 80°
2026-05-04 18:34 50.84861 -0.43169 10097 ft 231 kts 81°
2026-05-04 18:34 50.85147 -0.40677 9819 ft 230 kts 81°
2026-05-04 18:35 50.85423 -0.38259 9532 ft 229 kts 80°
2026-05-04 18:35 50.85704 -0.35782 9223 ft 228 kts 80°
2026-05-04 18:35 50.85984 -0.33318 8940 ft 227 kts 80°
2026-05-04 18:35 50.86264 -0.30858 8652 ft 226 kts 80°
2026-05-04 18:36 50.86541 -0.28418 8374 ft 225 kts 80°
2026-05-04 18:36 50.86827 -0.25990 8113 ft 223 kts 75°
2026-05-04 18:36 50.87605 -0.23909 8026 ft 227 kts 42°
2026-05-04 18:36 50.88984 -0.22804 8002 ft 228 kts 13°
2026-05-04 18:37 50.90537 -0.22316 8000 ft 227 kts 11°
2026-05-04 18:37 50.92085 -0.21850 7935 ft 225 kts 11°
2026-05-04 18:37 50.93627 -0.21388 7695 ft 225 kts 11°
2026-05-04 18:37 50.95167 -0.20928 7428 ft 224 kts 11°
2026-05-04 18:38 50.96694 -0.20471 7186 ft 223 kts 11°
2026-05-04 18:38 50.98215 -0.20047 6933 ft 221 kts
2026-05-04 18:38 50.99699 -0.20538 6663 ft 221 kts 330°
2026-05-04 18:38 51.00762 -0.22245 6389 ft 220 kts 297°
2026-05-04 18:39 51.01049 -0.24603 6094 ft 221 kts 264°
2026-05-04 18:39 51.00826 -0.27013 5827 ft 220 kts 261°
2026-05-04 18:39 51.00573 -0.29416 5559 ft 220 kts 261°
2026-05-04 18:39 51.00322 -0.31795 5339 ft 218 kts 261°
2026-05-04 18:40 51.00228 -0.34182 5131 ft 214 kts 279°
2026-05-04 18:40 51.00465 -0.36455 5066 ft 204 kts 281°
2026-05-04 18:40 51.00704 -0.38636 4965 ft 198 kts 281°
2026-05-04 18:40 51.00935 -0.40770 4789 ft 196 kts 281°
2026-05-04 18:41 51.01158 -0.42878 4588 ft 195 kts 281°
2026-05-04 18:41 51.01385 -0.45006 4390 ft 195 kts 281°
2026-05-04 18:41 51.01611 -0.47125 4179 ft 195 kts 281°
2026-05-04 18:41 51.02124 -0.49064 3960 ft 191 kts 314°
2026-05-04 18:42 51.02987 -0.49997 3783 ft 187 kts 339°
2026-05-04 18:42 51.04023 -0.50648 3614 ft 187 kts 341°
2026-05-04 18:42 51.05237 -0.51397 3452 ft 186 kts 341°
2026-05-04 18:42 51.06449 -0.52095 3268 ft 184 kts 351°
2026-05-04 18:43 51.07674 -0.51832 3070 ft 178 kts 31°
2026-05-04 18:43 51.08602 -0.50545 2998 ft 181 kts 45°
2026-05-04 18:43 51.09459 -0.49103 2999 ft 179 kts 50°
2026-05-04 18:43 51.10197 -0.47502 3003 ft 180 kts 59°
2026-05-04 18:44 51.10776 -0.45738 3001 ft 180 kts 68°
2026-05-04 18:44 51.10905 -0.45124 3008 ft 181 kts 72°
2026-05-04 18:44 51.11570 -0.41977 2916 ft 177 kts 72°
2026-05-04 18:44 51.11888 -0.40095 2689 ft 179 kts 75°
2026-05-04 18:45 51.12172 -0.38144 2448 ft 183 kts 76°
2026-05-04 18:45 51.12449 -0.36153 2188 ft 186 kts 76°
2026-05-04 18:45 51.12730 -0.34129 1929 ft 188 kts 76°
2026-05-04 18:45 51.12996 -0.32187 1708 ft 168 kts 76°
2026-05-04 18:46 51.13235 -0.30463 1478 ft 154 kts 76°
2026-05-04 18:46 51.13479 -0.28704 1266 ft 180 kts 76°
2026-05-04 18:46 51.13731 -0.26856 1034 ft 160 kts 76°
2026-05-04 18:46 51.13966 -0.25199 789 ft 148 kts 76°
2026-05-04 18:47 51.14169 -0.23674 600 ft 137 kts 77°
2026-05-04 18:47 51.14363 -0.22231 419 ft 127 kts 77°
2026-05-04 18:47 51.14546 -0.20909 279 ft 117 kts 76°
2026-05-04 18:47 51.14709 -0.19726 205 ft 94 kts 77°
2026-05-04 18:48 51.14777 -0.19252 204 ft 31 kts 76°
2026-05-04 18:48 51.14831 -0.18902 209 ft 34 kts 75°
2026-05-04 18:48 51.14924 -0.18548 202 ft 35 kts 54°
2026-05-04 18:48 51.14983 -0.18431 215 ft 10 kts 51°
2026-05-04 18:49 51.15012 -0.18376 217 ft 15 kts 50°
2026-05-04 18:49 51.15076 -0.18252 212 ft 12 kts 51°
2026-05-04 18:49 51.15138 -0.18195 205 ft 15 kts 352°
2026-05-04 18:49 51.15146 -0.18196 209 ft 0 kts 359°
2026-05-04 18:50 51.15152 -0.18196 208 ft 0 kts 359°
2026-05-04 18:51 51.15156 -0.18196 207 ft 6 kts 359°
2026-05-04 18:52 51.15197 -0.18175 213 ft 0 kts 37°
2026-05-04 18:52 51.15202 -0.18161 209 ft 8 kts 59°
2026-05-04 18:52 51.15230 -0.17961 215 ft 28 kts 78°
2026-05-04 18:52 51.15273 -0.17653 206 ft 25 kts 77°
2026-05-04 18:53 51.15308 -0.17355 209 ft 29 kts 84°
2026-05-04 18:53 51.15347 -0.17023 206 ft 31 kts 78°
2026-05-04 18:53 51.15367 -0.16886 205 ft 10 kts 77°
2026-05-04 18:53 51.15387 -0.16747 203 ft 16 kts 77°
2026-05-04 18:54 51.15414 -0.16556 204 ft 16 kts 84°
2026-05-04 18:54 51.15380 -0.16481 206 ft 6 kts 180°
2026-05-04 18:54 51.15317 -0.16458 201 ft 12 kts 134°
2026-05-04 18:54 51.15311 -0.16439 212 ft 2 kts 113°
2026-05-04 18:55 51.15312 -0.16386 204 ft 8 kts 79°
2026-05-04 18:55 51.15358 -0.16342 204 ft 0 kts 359°